Location: Ward Pound Ridge Reservation
(41.2500°N, 73.6000°W)
Time: 05:21:21
(UTC-04:00)

ISS - Pass Details

Date: 13 October 2017
Orbit: 401 x 408 km, 51.6° (Epoch: 19 October)

Event Time Altitude Azimuth Distance (km) Brightness Sun altitude
Rises 20:18:34 0° 297° (WNW) 2,325 1.3 -23.7°
Reaches altitude 10° 20:20:49 10° 285° (WNW) 1,463 0.1 -24.1°
Enters shadow 20:23:12 27° 241° (WSW) 824 -1.9 -24.6°
